[[{"header":{"parameterUnit":"m.s-1","parameterCategory":1,"la1":30.2991,"la2":30.254,"lo1":-89.0895,"lo2":-89.0444,"dy":0.0017,"dx":0.0017,"nx":28,"ny":28,"refTime":"2024-10-05T09:00:00:Z","depth":0,"parameterNumber":2,"parameterNumberName":"U-component_of_WINDS"},"data":[0,0,0,0,0,0,0,0,0,0,0,0,0,0,0,0,0,0,0,0,0,0,0,0,0,0,0,0,0,0,0,0,0,0,0,0,0,0,0,0,0,0,0,0,0,0,0,0,0,0,0,0,0,0,0,0,0,0,-3.1815,-3.1816,0,-3.1906,-3.1907,-3.1908,-3.1881,-3.1879,-3.1877,-3.1875,-3.1972,-3.1976,-3.198,0,0,0,0,0,0,0,0,0,0,0,0,0,-3.1623,-3.1627,-3.1815,-3.1816,-3.1818,-3.1906,-3.1907,-3.1909,-3.1881,-3.1879,-3.1876,-3.1874,-3.197,-3.1975,-3.1981,0,0,0,0,0,0,0,0,0,0,0,0,0,-3.171,-3.1628,-3.1815,-3.1814,-3.1815,-3.1906,-3.1907,-3.1909,-3.1882,-3.1879,-3.1876,-3.1873,-3.1968,-3.1975,-3.1981,-3.2079,0,0,-3.2001,-3.2004,0,0,0,0,0,0,0,0,-3.1705,-3.1717,-3.1813,-3.1815,-3.1816,-3.1879,-3.1875,-3.1966,-3.1882,-3.1857,-3.1875,-3.1872,-3.1943,-3.1952,-3.1975,-3.2084,-3.2088,-3.2002,-3.2006,-3.2009,-3.201,0,0,0,0,0,0,0,-3.1699,-3.1713,-3.1851,-3.1815,-3.1816,-3.1811,-3.182,-3.1892,-3.1915,-3.1859,-3.1857,-3.1868,-3.1944,-3.1969,-3.1977,-3.2089,-3.2002,-3.2007,-3.2011,-3.2014,-3.2287,-3.229,0,0,0,0,0,0,-3.1691,-3.1708,-3.1849,-3.1854,-3.1752,-3.1817,-3.1827,-3.1862,-3.1914,-3.1919,-3.187,-3.1866,-3.1959,-3.197,-3.1981,-3.2102,-3.2009,-3.2015,-3.2018,-3.2284,-3.2288,-3.2292,0,0,0,0,0,0,-3.1687,-3.1704,-3.1845,-3.1781,-3.1798,-3.1823,-3.1862,-3.1865,-3.189,-3.1923,-3.1927,-3.1892,-3.1957,-3.1971,-3.2056,-3.2105,-3.2018,-3.2024,-3.228,-3.2285,-3.229,-3.2343,0,0,0,0,0,0,-3.1682,-3.1703,-3.1739,-3.1782,-3.1802,-3.1917,-3.1865,-3.1869,-3.1901,-3.1897,-3.1944,-3.1949,-3.1956,-3.2046,-3.2062,-3.2112,-3.2029,-3.2276,-3.2282,-3.2288,-3.2337,-3.235,-3.236,0,0,0,0,0,-3.1675,-3.175,-3.1741,-3.1758,-3.1847,-3.192,-3.1931,-3.1937,-3.1905,-3.1943,-3.1965,-3.1948,-3.2096,-3.2055,-3.2073,-3.2126,-3.2273,-3.228,-3.2288,-3.2332,-3.2347,-3.236,0,0,0,0,0,0,-3.1713,-3.1756,-3.1746,-3.1836,-3.1875,-3.1915,-3.1962,-3.1952,-3.2,-3.1994,-3.2,-3.2011,-3.2098,-3.212,-3.2073,-3.2225,-3.218,-3.2192,-3.2208,-3.2222,-3.2234,-3.2228,-3.2034,0,0,0,0,0,-3.1732,-3.1786,-3.182,-3.1897,-3.1917,-3.1936,-3.1968,-3.1969,-3.2009,-3.2026,-3.2053,-3.2094,-3.215,-3.2187,-3.224,-3.234,-3.2352,-3.2385,-3.2397,-3.2406,-3.2416,-3.2475,-3.2491,-3.2316,-3.2316,-3.2316,0,0,-3.1771,-3.1801,-3.1835,-3.1906,-3.1935,-3.1994,-3.195,-3.2012,-3.2056,-3.2035,-3.2117,-3.2139,-3.2185,-3.2279,-3.2321,-3.23,-3.2468,-3.2415,-3.2422,-3.2428,-3.2485,-3.2501,-3.2516,-3.2321,-3.232,-3.232,0,0,-3.1873,-3.19,-3.1968,-3.2,-3.2045,-3.2058,-3.2075,-3.2117,-3.2131,-3.2213,-3.22,-3.2253,-3.2348,-3.2383,-3.2414,-3.2533,-3.2521,-3.255,-3.261,-3.2667,-3.2681,-3.2693,-3.2739,-3.2755,-3.256,-3.256,-3.256,0,-3.1917,-3.2002,-3.2005,-3.207,-3.2103,-3.2086,-3.2158,-3.2188,-3.2249,-3.2274,-3.2248,-3.2371,-3.24,-3.2504,-3.2533,-3.2557,-3.2579,-3.2545,-3.2678,-3.269,-3.2702,-3.2746,-3.2763,-3.2563,-3.2563,-3.2562,-3.2562,0,-3.2056,-3.2115,-3.2166,-3.2225,-3.2264,-3.2331,-3.2347,-3.2386,-3.2385,-3.2401,-3.2487,-3.2523,-3.2585,-3.2609,-3.2607,-3.2713,-3.2699,-3.2676,-3.2631,-3.2722,-3.2764,-3.2781,-3.2568,-3.2567,-3.2566,-3.2565,0,0,-3.2183,-3.2246,-3.2264,-3.2293,-3.2343,-3.2391,-3.2459,-3.2519,-3.2554,-3.2598,-3.2658,-3.274,-3.272,-3.2755,-3.2757,-3.2807,-3.2904,-3.2778,-3.278,-3.2804,-3.3028,-3.3047,-3.3066,-3.2896,-3.2899,-3.2901,-3.3025,0,-3.2292,-3.2411,-3.2418,-3.2527,-3.2584,-3.2571,-3.2631,-3.267,-3.2688,-3.2741,-3.2761,-3.2821,-3.2788,-3.2809,-3.2858,-3.2882,-3.295,-3.2873,-3.2955,-3.2958,-3.2946,-3.3087,-3.3107,-3.3222,-3.3041,-3.3044,-3.3046,0,-3.2435,-3.2483,-3.2598,-3.2644,-3.2668,-3.2722,-3.278,-3.283,-3.2875,-3.2885,-3.2925,-3.2921,-3.2995,-3.2946,-3.305,-3.2997,-3.3031,-3.3049,-3.3053,-3.3063,-3.3009,-3.3105,-3.3259,-3.3277,-3.3071,-3.3069,-3.3067,0,-3.2521,-3.2615,-3.2697,-3.2721,-3.2775,-3.2814,-3.2839,-3.2881,-3.2918,-3.2969,-3.2994,-3.3053,-3.3086,-3.3133,-3.3147,-3.311,-3.3252,-3.3203,-3.3265,-3.3265,-3.3297,-3.3295,-3.3462,-3.3314,-3.3314,-3.3313,-3.3313,0,-3.2643,-3.2715,-3.2737,-3.2787,-3.2869,-3.2876,-3.2957,-3.298,-3.3018,-3.3075,-3.3066,-3.312,-3.3134,-3.3192,-3.3203,-3.329,-3.3304,-3.3316,-3.3319,-3.3319,-3.3318,-3.3343,-3.3337,-3.3318,-3.3317,-3.3316,-3.3315,0,-3.2754,-3.277,-3.286,-3.2904,-3.2918,-3.2976,-3.3015,-3.3066,-3.3083,-3.3156,-3.3173,-3.3201,-3.3269,-3.3287,-3.3368,-3.3376,-3.3479,-3.3472,-3.3463,-3.3464,-3.3526,-3.3522,-3.3718,-3.3745,-3.3576,-3.3578,-3.3579,0,-3.2832,-3.2887,-3.2939,-3.2976,-3.3002,-3.3062,-3.31,-3.3111,-3.3151,-3.3209,-3.3253,-3.332,-3.3374,-3.3483,-3.3512,-3.3575,-3.3573,-3.3637,-3.3582,-3.3582,-3.3578,-3.3576,-3.3584,-3.3648,-3.365,-3.3651,-3.3653,0,-3.2971,-3.2977,-3.3031,-3.3091,-3.3136,-3.3183,-3.3228,-3.326,-3.3277,-3.3324,-3.3393,-3.3434,-3.3518,-3.3586,-3.365,-3.3678,-3.3671,-3.3669,-3.3688,-3.369,-3.3684,-3.3692,-3.3495,-3.3665,-3.3664,-3.3663,-3.3663,-3.3662,-3.307,-3.312,-3.3165,-3.3227,-3.3262,-3.3305,-3.3356,-3.338,-3.3437,-3.3506,-3.3509,-3.3585,-3.3633,-3.3718,-3.375,-3.3812,-3.3793,-3.3818,-3.3825,-3.3832,-3.384,-3.3672,-3.3823,-3.3822,-3.3822,-3.3822,-3.3822,0,-3.3211,-3.324,-3.3297,-3.3361,-3.3411,-3.3397,-3.3447,-3.3491,-3.3558,-3.3602,-3.3656,-3.3738,-3.3804,-3.3839,-3.3906,-3.3949,-3.3947,-3.3967,-3.3965,-3.3973,-3.385,-3.383,-3.3967,-3.3967,-3.3967,-3.3967,-3.3967,-3.3967,-3.3291,-3.3376,-3.3388,-3.3492,-3.352,-3.3594,-3.3625,-3.3666,-3.3702,-3.3793,-3.3848,-3.387,-3.3912,-3.3983,-3.4044,-3.4053,-3.408,-3.4102,-3.411,-3.3995,-3.3981,-3.3967,-3.3947,-3.4107,-3.4107,-3.4227,-3.4228,-3.4229]},{"header":{"parameterUnit":"m.s-1","parameterCategory":1,"la1":30.2991,"la2":30.254,"lo1":-89.0895,"lo2":-89.0444,"dy":0.0017,"dx":0.0017,"nx":28,"ny":28,"refTime":"2024-10-05T09:00:00:Z","depth":0,"parameterNumber":3,"parameterNumberName":"V-component_of_WINDS"},"data":[0,0,0,0,0,0,0,0,0,0,0,0,0,0,0,0,0,0,0,0,0,0,0,0,0,0,0,0,0,0,0,0,0,0,0,0,0,0,0,0,0,0,0,0,0,0,0,0,0,0,0,0,0,0,0,0,0,0,-1.301,-1.3011,0,-1.308,-1.3081,-1.3082,-1.3122,-1.3122,-1.3122,-1.3123,-1.3195,-1.3197,-1.3199,0,0,0,0,0,0,0,0,0,0,0,0,0,-1.2913,-1.2915,-1.301,-1.3011,-1.3012,-1.308,-1.3081,-1.3082,-1.3122,-1.3122,-1.3122,-1.3123,-1.3194,-1.3197,-1.3199,0,0,0,0,0,0,0,0,0,0,0,0,0,-1.2966,-1.2915,-1.301,-1.304,-1.3043,-1.308,-1.3081,-1.3082,-1.3122,-1.3122,-1.3122,-1.3123,-1.3194,-1.3196,-1.3199,-1.3211,0,0,-1.3207,-1.3208,0,0,0,0,0,0,0,0,-1.2963,-1.297,-1.3035,-1.3038,-1.3042,-1.3093,-1.3073,-1.3125,-1.3122,-1.3092,-1.3123,-1.3123,-1.3161,-1.3166,-1.3179,-1.3214,-1.3217,-1.3207,-1.3209,-1.321,-1.3211,0,0,0,0,0,0,0,-1.296,-1.2967,-1.3038,-1.3036,-1.304,-1.3051,-1.3059,-1.3083,-1.3124,-1.3095,-1.3098,-1.3106,-1.3163,-1.3176,-1.3181,-1.3218,-1.3207,-1.321,-1.3211,-1.3212,-1.327,-1.327,0,0,0,0,0,0,-1.2951,-1.2964,-1.3035,-1.304,-1.3002,-1.3052,-1.3061,-1.3076,-1.3124,-1.3132,-1.3105,-1.3107,-1.3171,-1.3178,-1.3184,-1.3202,-1.321,-1.3213,-1.3214,-1.327,-1.327,-1.327,0,0,0,0,0,0,-1.2949,-1.2957,-1.3033,-1.3003,-1.3013,-1.3054,-1.307,-1.3077,-1.3091,-1.3132,-1.314,-1.3111,-1.3172,-1.318,-1.3204,-1.3205,-1.3214,-1.3216,-1.327,-1.327,-1.327,-1.3238,0,0,0,0,0,0,-1.2946,-1.2956,-1.296,-1.3002,-1.3015,-1.3051,-1.307,-1.3078,-1.3095,-1.3098,-1.314,-1.3147,-1.3173,-1.32,-1.3207,-1.3209,-1.3218,-1.327,-1.327,-1.327,-1.3239,-1.3237,-1.3235,0,0,0,0,0,-1.2942,-1.2948,-1.296,-1.2968,-1.3021,-1.3051,-1.3058,-1.3088,-1.3095,-1.31,-1.3127,-1.3146,-1.3204,-1.3202,-1.321,-1.3213,-1.327,-1.327,-1.327,-1.324,-1.3238,-1.3235,0,0,0,0,0,0,-1.2904,-1.2954,-1.2968,-1.2988,-1.3015,-1.3058,-1.3065,-1.3083,-1.3109,-1.3111,-1.3147,-1.3156,-1.3177,-1.3198,-1.3195,-1.3229,-1.3239,-1.3241,-1.3214,-1.3212,-1.321,-1.3205,-1.3221,0,0,0,0,0,-1.2899,-1.2919,-1.2961,-1.2975,-1.2988,-1.3024,-1.3038,-1.3059,-1.3089,-1.31,-1.3129,-1.3158,-1.3183,-1.3198,-1.3224,-1.3243,-1.3253,-1.3249,-1.3247,-1.3245,-1.3246,-1.3259,-1.3258,-1.3269,-1.3269,-1.3269,0,0,-1.2886,-1.2916,-1.2926,-1.2968,-1.2991,-1.3013,-1.3033,-1.3054,-1.3071,-1.3104,-1.3129,-1.3151,-1.3186,-1.3208,-1.3219,-1.3226,-1.3245,-1.3245,-1.3243,-1.3245,-1.3259,-1.3258,-1.3257,-1.3269,-1.3269,-1.3269,0,0,-1.2875,-1.2899,-1.2914,-1.2937,-1.2973,-1.2997,-1.3001,-1.3041,-1.3058,-1.3083,-1.3109,-1.313,-1.3171,-1.3196,-1.3213,-1.3213,-1.3232,-1.3221,-1.3209,-1.3222,-1.3221,-1.3221,-1.3222,-1.3222,-1.3221,-1.3221,-1.3221,0,-1.2855,-1.2887,-1.2919,-1.2939,-1.2957,-1.2988,-1.3004,-1.3026,-1.3068,-1.308,-1.3086,-1.3141,-1.3166,-1.3196,-1.3196,-1.3209,-1.3215,-1.3216,-1.3219,-1.3219,-1.3219,-1.322,-1.3221,-1.322,-1.322,-1.322,-1.322,0,-1.2862,-1.2885,-1.2892,-1.2933,-1.2952,-1.2969,-1.3004,-1.302,-1.3039,-1.3063,-1.309,-1.3122,-1.3155,-1.3164,-1.3182,-1.3196,-1.32,-1.3212,-1.3224,-1.3216,-1.3218,-1.3219,-1.3218,-1.3218,-1.3219,-1.3219,0,0,-1.2828,-1.2887,-1.2889,-1.2909,-1.2951,-1.2969,-1.2989,-1.3022,-1.3035,-1.3064,-1.3082,-1.3118,-1.3131,-1.3151,-1.3173,-1.3184,-1.3184,-1.3195,-1.3197,-1.3193,-1.3203,-1.3194,-1.3194,-1.3196,-1.3197,-1.3197,-1.3201,0,-1.2824,-1.2861,-1.2891,-1.2917,-1.2939,-1.297,-1.2988,-1.3016,-1.304,-1.3062,-1.3088,-1.3114,-1.3127,-1.314,-1.3153,-1.3181,-1.3186,-1.3181,-1.3215,-1.3216,-1.3206,-1.3195,-1.3185,-1.3187,-1.3201,-1.3202,-1.3202,0,-1.2824,-1.2851,-1.288,-1.2922,-1.2932,-1.2947,-1.2981,-1.3001,-1.3035,-1.3052,-1.3075,-1.3098,-1.3122,-1.3131,-1.3166,-1.3161,-1.3177,-1.3194,-1.3194,-1.3199,-1.3208,-1.32,-1.3188,-1.3188,-1.3203,-1.3203,-1.3203,0,-1.2798,-1.2842,-1.2865,-1.2881,-1.293,-1.294,-1.2961,-1.2995,-1.3014,-1.3043,-1.3055,-1.3087,-1.3104,-1.3129,-1.3161,-1.3164,-1.3192,-1.3204,-1.3208,-1.3207,-1.3212,-1.3211,-1.3203,-1.3221,-1.3221,-1.3221,-1.3221,0,-1.279,-1.2806,-1.2855,-1.2869,-1.2889,-1.2923,-1.2943,-1.2966,-1.2997,-1.3017,-1.3046,-1.3064,-1.3105,-1.3129,-1.3154,-1.3179,-1.3187,-1.3202,-1.3208,-1.3199,-1.3198,-1.321,-1.3211,-1.3221,-1.3221,-1.3221,-1.3221,0,-1.2764,-1.2797,-1.2825,-1.2869,-1.2881,-1.2894,-1.2933,-1.2948,-1.2974,-1.3,-1.3008,-1.3048,-1.3078,-1.3112,-1.3153,-1.317,-1.3194,-1.3203,-1.3183,-1.3186,-1.3189,-1.3188,-1.3189,-1.3191,-1.3207,-1.3206,-1.3206,0,-1.2757,-1.2771,-1.2818,-1.2833,-1.2854,-1.2878,-1.2897,-1.2933,-1.2951,-1.2992,-1.3003,-1.3035,-1.3063,-1.3109,-1.3143,-1.3175,-1.3186,-1.3184,-1.3191,-1.3182,-1.3187,-1.3186,-1.3188,-1.3182,-1.3181,-1.3181,-1.3181,0,-1.2742,-1.2758,-1.2785,-1.2817,-1.2839,-1.2866,-1.2894,-1.2906,-1.2947,-1.2967,-1.2998,-1.3019,-1.3062,-1.3094,-1.313,-1.3153,-1.3174,-1.3178,-1.3181,-1.3172,-1.316,-1.3168,-1.3178,-1.3178,-1.3178,-1.3179,-1.3179,-1.3179,-1.2727,-1.2741,-1.2776,-1.2805,-1.283,-1.2857,-1.2874,-1.2902,-1.2929,-1.2966,-1.2985,-1.3016,-1.3052,-1.3103,-1.3125,-1.3151,-1.3158,-1.3161,-1.3163,-1.3163,-1.3161,-1.3156,-1.3158,-1.3158,-1.3158,-1.3158,-1.3158,0,-1.2715,-1.2739,-1.2765,-1.2804,-1.2827,-1.2845,-1.2878,-1.2896,-1.2923,-1.2954,-1.2981,-1.3017,-1.3049,-1.3086,-1.312,-1.3133,-1.3144,-1.3141,-1.3141,-1.3146,-1.3152,-1.3147,-1.3132,-1.3132,-1.3132,-1.3132,-1.3132,-1.3132,-1.2711,-1.2736,-1.2757,-1.2795,-1.282,-1.2851,-1.2868,-1.2893,-1.2918,-1.2957,-1.2984,-1.3007,-1.3041,-1.3079,-1.3109,-1.3119,-1.3131,-1.3125,-1.3138,-1.3143,-1.3146,-1.3148,-1.3143,-1.3127,-1.3127,-1.313,-1.313,-1.313]}]]